Temperature
11 11 11 11 10 10 9 9 9 8 7 6 6 5 4 4 3 2 2 1 -0 -1 -2 -2 -3 -3 -3 -3 -2 -3 -3 -3 -4 -4 -3 -3 -3 -3 -4 -5 -5 -6 -6
10 10 10 10 10 9 9 9 8 8 8 7 6 5 4 4 3 2 2 1 -1 -1 -2 -3 -3 -4 -4 -4 -4 -3 -3 -3 -4 -4 -4 -4 -4 -4 -5 -5 -6 -6 -6
9 9 9 9 9 8 8 8 8 8 7 7 6 5 5 4 3 2 1 0 -0 -1 -2 -3 -3 -4 -4 -4 -4 -4 -4 -4 -4 -5 -5 -5 -4 -4 -5 -6 -6 -6 -7
8 8 8 8 7 7 7 7 7 7 7 6 6 5 5 4 3 2 1 0 -1 -2 -2 -3 -4 -4 -5 -5 -5 -5 -5 -5 -5 -6 -6 -6 -6 -5 -6 -7 -7 -7 -7
7 7 7 7 6 6 6 6 6 6 6 6 5 5 4 3 3 2 1 -0 -1 -2 -3 -4 -4 -5 -5 -5 -5 -5 -5 -5 -5 -6 -7 -7 -7 -6 -6 -6 -7 -7 -7
7 7 6 6 6 6 5 5 5 6 5 5 5 4 4 3 3 1 -0 -1 -2 -3 -3 -4 -5 -5 -6 -6 -6 -6 -5 -6 -6 -6 -7 -7 -6 -6 -6 -7 -7 -8 -8
6 6 5 5 5 5 5 5 5 5 4 4 4 4 4 3 2 0 -1 -2 -3 -3 -4 -5 -5 -6 -6 -6 -6 -6 -6 -6 -6 -6 -6 -6 -6 -6 -7 -7 -7 -8 -8
5 5 4 4 4 4 4 4 4 3 3 3 3 3 3 3 2 -0 -2 -3 -4 -4 -4 -5 -6 -6 -6 -6 -6 -6 -6 -6 -6 -6 -6 -6 -6 -6 -7 -7 -7 -8 -8
4 4 4 3 3 3 3 2 2 2 2 2 2 2 2 2 1 -1 -2 -3 -4 -4 -5 -6 -6 -7 -7 -7 -7 -6 -6 -5 -5 -6 -6 -7 -7 -7 -7 -7 -8 -8 -8
3 3 3 2 2 1 1 1 1 1 1 1 1 1 0 1 -0 -1 -3 -4 -5 -5 -5 -6 -6 -7 -7 -7 -7 -7 -6 -5 -5 -6 -6 -7 -7 -7 -7 -8 -8 -9 -9
2 2 2 1 1 0 0 0 -0 -0 -0 -0 -0 -0 -0 -1 -1 -2 -3 -4 -5 -5 -6 -6 -6 -6 -6 -6 -6 -6 -6 -6 -6 -7 -7 -7 -7 -7 -7 -7 -8 -9 -10
1 1 1 0 -0 -1 -1 -1 -1 -1 -1 -1 -1 -1 -1 -1 -2 -3 -4 -4 -5 -6 -6 -6 -6 -6 -6 -6 -6 -6 -6 -6 -7 -7 -7 -7 -7 -7 -7 -8 -8 -9 -10
0 0 -0 -1 -1 -1 -1 -2 -2 -2 -2 -2 -2 -2 -2 -2 -3 -4 -4 -5 -5 -6 -6 -6 -6 -6 -6 -6 -6 -6 -6 -6 -7 -7 -7 -7 -7 -7 -8 -8 -9 -9 -10
-0 -1 -1 -1 -2 -2 -2 -2 -2 -2 -2 -3 -3 -3 -3 -3 -3 -4 -5 -5 -6 -6 -6 -6 -6 -6 -6 -6 -6 -6 -6 -6 -7 -7 -7 -7 -8 -8 -8 -9 -9 -10 -11
-1 -2 -2 -2 -2 -2 -2 -3 -3 -3 -3 -3 -3 -3 -4 -4 -4 -5 -6 -6 -6 -6 -7 -6 -6 -6 -6 -6 -6 -6 -6 -7 -7 -7 -8 -8 -8 -9 -9 -9 -10 -11 -11
-2 -2 -3 -3 -3 -3 -3 -3 -3 -3 -3 -3 -3 -4 -4 -4 -4 -5 -5 -6 -6 -6 -7 -7 -6 -6 -6 -6 -6 -6 -7 -7 -7 -7 -8 -8 -9 -9 -9 -10 -10 -11 -12
-3 -3 -4 -4 -4 -4 -4 -3 -3 -3 -3 -3 -3 -4 -4 -4 -5 -5 -5 -6 -6 -6 -6 -6 -6 -6 -6 -6 -6 -7 -7 -7 -7 -8 -9 -9 -9 -10 -10 -10 -11 -11 -12
-4 -4 -4 -4 -4 -4 -4 -4 -4 -4 -4 -3 -3 -4 -4 -4 -5 -5 -6 -6 -6 -6 -7 -6 -6 -6 -6 -6 -6 -7 -7 -7 -8 -8 -9 -9 -10 -10 -10 -11 -11 -12 -12
-4 -5 -5 -5 -4 -4 -4 -4 -4 -4 -4 -4 -4 -4 -4 -5 -5 -6 -6 -6 -6 -6 -7 -7 -6 -6 -6 -6 -7 -7 -7 -8 -8 -9 -9 -9 -10 -10 -11 -11 -11 -12 -12
-5 -5 -5 -5 -4 -4 -4 -4 -4 -4 -4 -4 -4 -4 -5 -5 -6 -6 -6 -7 -7 -7 -7 -7 -7 -6 -6 -7 -7 -7 -8 -8 -8 -9 -9 -9 -10 -10 -11 -11 -12 -12 -12
-5 -5 -5 -5 -4 -4 -4 -4 -4 -4 -4 -4 -4 -5 -5 -6 -6 -6 -7 -7 -7 -7 -6 -6 -6 -7 -7 -7 -7 -7 -8 -8 -8 -9 -9 -10 -10 -11 -11 -11 -12 -12 -12
-5 -5 -5 -5 -4 -4 -4 -4 -4 -4 -4 -5 -5 -5 -5 -6 -7 -7 -7 -7 -7 -7 -6 -6 -6 -7 -7 -7 -7 -8 -8 -8 -9 -9 -10 -10 -11 -11 -11 -11 -12 -12 -12
-5 -5 -5 -5 -4 -4 -4 -4 -4 -5 -5 -5 -5 -5 -6 -6 -7 -7 -7 -7 -7 -7 -6 -6 -6 -7 -7 -7 -7 -8 -8 -8 -9 -10 -10 -10 -11 -11 -11 -11 -12 -12 -12
-5 -5 -5 -5 -5 -5 -5 -5 -5 -5 -5 -5 -6 -6 -6 -7 -7 -7 -7 -7 -7 -7 -7 -7 -7 -7 -7 -7 -8 -8 -8 -9 -9 -10 -10 -11 -11 -11 -11 -12 -12 -12 -12
-5 -5 -5 -5 -5 -5 -5 -5 -5 -5 -6 -6 -6 -6 -7 -7 -7 -8 -7 -7 -7 -7 -7 -7 -7 -7 -7 -8 -8 -8 -9 -9 -10 -10 -10 -11 -11 -11 -11 -12 -12 -12 -12
-5 -5 -5 -5 -5 -5 -6 -6 -6 -6 -6 -6 -7 -7 -7 -8 -8 -8 -8 -7 -7 -7 -7 -7 -7 -7 -8 -8 -8 -9 -9 -10 -10 -10 -11 -11 -11 -11 -12 -12 -12 -12 -13
Wind_Speed
6 7 8 9 9 10 11 13 13 13 13 14 13 14 15 17 18 18 19 16 19 18 16 17 18 15 12 11 10 10 11 11 14 9 7 8 9 10 12 16 19 20 22
6 6 7 8 8 9 11 12 11 12 13 13 13 14 15 16 17 19 21 20 20 21 19 18 19 16 17 13 12 13 13 13 12 13 8 8 11 10 10 12 14 19 18
6 6 7 8 8 9 10 10 10 11 12 12 13 15 15 15 16 18 19 19 20 20 19 20 18 18 19 16 15 15 13 13 12 12 11 9 9 10 10 12 14 12 18
8 7 8 8 9 9 9 9 10 10 11 12 13 14 14 14 15 16 17 17 18 18 18 18 19 20 19 18 17 16 14 13 12 11 12 10 11 10 9 11 12 10 12
9 9 9 9 8 8 9 9 10 10 11 11 11 13 12 12 13 14 15 16 17 17 17 19 20 24 28 23 18 15 15 13 12 12 12 11 12 10 10 9 12 10 10
10 10 10 9 9 9 9 10 10 11 11 11 12 13 13 13 22 28 21 15 16 17 18 17 19 26 31 36 34 30 24 17 15 14 13 13 13 12 10 10 10 11 13
11 11 10 10 10 10 10 10 11 11 11 12 12 13 15 17 26 28 30 18 16 17 17 16 17 20 26 19 26 33 30 33 28 18 16 16 15 12 10 12 12 13 16
11 11 11 10 10 10 10 11 12 11 11 11 12 13 14 17 25 27 28 20 15 17 18 18 18 17 19 19 18 18 18 18 21 17 14 14 13 11 10 12 14 15 15
12 11 11 10 11 11 12 12 12 11 11 11 10 11 13 15 22 24 25 12 13 16 16 17 18 17 26 30 21 19 19 17 23 28 26 24 27 27 21 13 12 12 16
12 12 11 11 12 12 13 13 11 10 11 10 11 11 12 12 19 23 23 10 12 13 13 16 26 25 28 31 21 18 19 17 13 13 17 20 17 18 24 14 10 13 15
12 12 12 12 12 13 13 11 11 10 10 10 11 10 11 13 17 22 23 11 12 12 12 12 15 29 31 31 27 17 21 16 11 12 11 11 10 9 10 10 9 10 13
12 13 13 12 12 12 12 12 11 11 11 11 11 11 8 10 14 17 22 22 19 13 12 10 13 25 28 29 24 22 25 21 10 10 10 10 9 8 8 9 10 11 12
13 13 13 12 11 11 12 13 12 10 10 10 10 11 9 7 10 19 21 22 23 15 11 18 19 23 24 20 24 25 20 11 8 9 10 9 7 7 7 6 7 9 10
14 13 12 12 12 12 10 10 10 10 11 11 11 11 10 7 6 7 8 10 15 15 12 16 23 23 18 16 15 13 10 8 8 9 7 7 5 5 6 6 7 7 9
13 12 12 12 13 12 11 10 12 11 13 14 11 10 11 11 11 15 11 7 7 9 8 7 8 8 10 9 8 8 7 7 9 7 7 6 6 7 7 6 6 7 10
12 12 11 11 12 12 13 13 15 17 23 24 22 20 15 18 22 21 20 18 18 17 12 8 10 10 10 10 9 9 8 8 8 7 6 7 7 7 7 6 7 8 11
13 14 12 12 13 13 12 13 15 15 19 21 22 23 22 22 22 21 20 18 17 16 11 8 8 9 9 9 8 8 8 7 7 7 7 6 6 7 7 8 8 9 10
13 16 16 13 13 13 13 13 13 15 15 12 14 20 21 20 20 19 18 14 10 10 7 7 7 7 7 8 8 7 7 6 6 6 6 6 6 7 8 9 9 10 11
13 12 13 13 13 13 13 13 13 14 14 13 11 11 15 16 17 16 13 8 7 7 6 6 6 6 6 7 7 7 7 6 6 5 6 6 6 7 9 9 9 15 14
12 21 20 15 13 13 13 13 13 13 13 12 11 9 7 7 6 6 6 5 6 6 6 6 6 6 6 6 6 6 6 6 6 6 6 6 6 7 9 10 9 10 10
12 15 21 17 13 14 13 14 13 13 12 12 11 10 13 7 6 5 5 5 5 5 6 7 6 7 6 6 6 6 7 6 6 6 6 6 7 7 8 8 9 10 10
12 13 13 14 14 13 14 13 13 13 12 12 10 9 13 7 4 5 5 4 4 4 6 6 6 6 6 6 6 6 6 6 6 5 6 6 7 7 8 8 9 9 9
12 14 14 14 13 16 16 12 12 12 11 10 9 6 4 4 4 4 4 3 3 4 5 5 5 5 5 5 5 5 6 6 5 5 6 6 7 7 7 8 10 10 10
14 15 15 14 13 12 13 12 11 11 10 8 6 4 3 3 3 3 2 1 2 3 4 4 5 6 6 5 4 4 4 5 5 5 7 7 8 7 7 8 9 10 11
14 14 14 13 13 12 12 11 11 10 8 7 5 3 3 2 2 1 1 2 3 3 4 4 3 4 6 5 4 4 7 10 9 7 6 7 8 8 8 9 9 10 11
14 14 13 12 11 11 11 11 10 9 7 5 3 2 1 1 1 1 2 3 3 3 3 3 3 4 4 4 5 7 9 10 11 12 7 5 6 7 8 9 10 11 11
Wind_Direction
262 254 252 250 245 243 241 241 239 238 234 233 229 222 219 217 216 219 223 219 222 223 220 220 221 214 215 215 214 213 216 219 239 239 231 244 246 252 262 264 266 265 266
268 262 260 261 258 253 251 249 243 240 236 235 232 229 226 221 217 219 223 221 221 223 220 219 219 216 215 214 215 217 220 221 231 243 242 243 245 248 252 257 265 266 263
289 276 272 267 263 261 259 258 251 245 242 237 233 233 231 226 221 221 222 223 222 222 219 219 218 214 217 216 215 218 221 226 228 238 245 244 250 253 255 261 261 262 266
303 291 283 274 268 267 267 267 263 255 249 243 238 236 233 228 224 223 222 223 223 222 219 218 217 216 217 215 217 219 221 225 228 235 244 247 252 250 249 258 264 258 262
308 300 289 282 278 278 278 276 272 265 258 251 246 243 236 231 230 225 223 223 223 223 221 220 219 219 221 219 220 219 219 223 227 233 241 246 250 249 248 251 261 265 262
310 301 295 290 284 280 277 276 273 269 264 257 250 248 244 241 244 241 234 227 226 225 225 223 223 228 229 228 228 225 221 221 225 229 235 240 246 244 248 252 261 271 277
306 301 298 294 290 284 282 281 276 271 265 258 254 249 248 247 250 250 245 235 227 228 227 225 227 227 228 228 234 235 233 230 227 225 233 239 245 245 248 257 260 265 270
305 301 300 298 293 290 286 282 280 276 270 265 260 254 252 252 254 254 251 244 233 228 226 223 224 224 223 222 225 231 237 241 241 239 238 244 247 249 245 255 265 271 272
303 301 301 301 297 295 290 285 282 279 276 271 266 259 256 257 258 257 253 242 238 233 226 223 223 224 228 228 224 226 232 238 245 244 245 248 253 257 258 261 264 272 279
302 301 302 301 297 294 291 289 286 279 276 275 271 263 259 257 260 259 255 241 238 237 230 225 227 226 228 230 226 222 228 232 230 239 247 255 258 262 266 261 260 270 277
301 302 301 299 296 294 294 293 291 286 283 281 278 272 262 260 264 262 257 240 235 237 235 229 224 229 230 230 229 224 229 229 225 231 239 245 245 245 247 245 241 247 263
301 300 298 296 297 299 296 295 291 289 288 287 285 283 271 264 266 263 260 255 246 236 235 230 224 226 230 232 232 231 233 237 231 230 239 242 242 242 241 238 237 238 246
302 300 299 298 297 296 295 296 296 292 288 287 285 285 282 265 262 267 266 262 256 246 235 233 230 228 227 233 235 234 235 233 223 231 239 242 239 240 241 245 249 250 254
301 301 299 300 300 297 294 292 293 292 289 287 287 286 284 275 261 254 252 261 260 257 252 240 235 229 223 222 227 235 229 220 221 231 236 240 240 243 248 249 259 265 273
300 300 300 298 298 298 294 291 291 283 284 289 285 280 283 282 273 272 265 246 233 240 236 226 220 215 214 211 210 213 212 218 232 226 230 240 248 254 257 250 256 268 274
306 304 301 299 299 297 296 295 287 286 294 294 291 287 282 279 283 282 276 268 258 247 241 230 220 213 212 209 208 208 208 215 221 226 231 238 248 255 264 265 263 267 274
302 302 302 299 298 296 296 298 301 300 296 295 293 293 290 286 284 283 277 266 257 248 241 229 216 207 205 204 203 203 208 212 212 218 227 234 245 255 264 270 271 272 274
299 301 302 298 296 295 295 295 296 299 301 297 294 294 294 291 288 284 279 269 251 239 232 224 211 201 198 198 199 202 206 206 207 215 224 233 242 256 265 270 272 272 278
301 300 297 295 294 293 293 293 292 291 292 294 294 293 293 292 289 283 279 264 244 228 221 211 198 193 193 194 196 198 201 204 207 213 225 234 242 254 264 267 271 278 282
300 300 302 298 296 295 294 293 293 293 293 293 292 291 291 285 273 273 260 252 244 225 208 196 190 187 186 187 189 192 199 206 211 220 229 237 245 254 263 267 270 275 278
300 300 300 299 295 295 294 294 293 292 292 292 290 286 289 280 267 261 256 249 240 218 196 187 185 184 182 182 186 194 201 211 215 223 232 241 248 258 263 267 270 274 278
299 298 298 297 296 295 296 295 295 294 294 293 292 288 290 282 269 266 255 250 239 206 183 175 176 179 182 185 188 196 207 215 220 226 237 247 254 261 266 269 274 277 280
300 300 299 297 297 299 302 298 297 296 295 293 290 283 273 263 262 263 257 244 218 178 165 163 167 170 174 178 183 193 208 219 221 225 239 253 260 265 269 273 276 280 283
303 302 301 301 302 301 301 301 301 300 298 295 289 277 266 259 261 263 254 193 149 143 146 153 160 169 172 175 184 195 207 221 224 232 242 254 263 268 272 276 279 281 283
305 303 303 303 304 305 306 306 305 303 300 296 287 275 265 254 250 232 166 131 130 134 140 142 149 164 177 185 195 214 237 250 256 256 250 255 260 264 272 276 279 282 281
306 304 305 307 309 309 309 310 312 310 306 300 288 275 258 238 210 160 139 132 134 137 140 142 152 164 179 197 218 239 255 264 271 274 269 256 260 270 275 277 279 281 282
Height
1448 1444 1441 1437 1434 1431 1428 1424 1422 1419 1418 1416 1415 1414 1412 1410 1409 1408 1407 1407 1407 1407 1409 1409 1410 1412 1414 1416 1418 1419 1420 1420 1417 1417 1421 1423 1423 1422 1421 1420 1419 1417 1415
1443 1440 1436 1432 1429 1425 1421 1418 1415 1411 1409 1407 1405 1403 1401 1399 1398 1397 1395 1395 1395 1395 1396 1398 1398 1402 1403 1406 1408 1409 1410 1410 1410 1408 1410 1412 1412 1412 1411 1409 1408 1407 1405
1439 1434 1430 1426 1422 1418 1414 1410 1407 1403 1400 1397 1395 1393 1391 1389 1388 1386 1385 1384 1383 1383 1385 1386 1387 1391 1391 1394 1397 1398 1400 1401 1401 1400 1399 1402 1402 1402 1401 1399 1398 1396 1395
1433 1429 1424 1419 1415 1410 1406 1402 1398 1394 1391 1388 1385 1383 1381 1379 1377 1376 1374 1373 1373 1373 1373 1375 1377 1378 1380 1384 1387 1388 1391 1392 1392 1391 1391 1391 1391 1391 1391 1389 1387 1386 1385
1427 1422 1417 1413 1408 1403 1399 1394 1390 1386 1382 1379 1375 1372 1370 1368 1366 1365 1364 1362 1362 1362 1362 1363 1364 1367 1370 1374 1376 1378 1381 1382 1382 1382 1382 1382 1381 1381 1381 1380 1378 1376 1374
1421 1416 1411 1406 1401 1396 1391 1386 1381 1377 1373 1369 1366 1363 1360 1357 1356 1354 1353 1350 1350 1350 1351 1352 1354 1357 1360 1364 1366 1368 1370 1371 1372 1372 1372 1372 1370 1372 1372 1372 1370 1367 1362
1415 1409 1404 1399 1393 1388 1383 1378 1373 1368 1364 1360 1356 1353 1349 1347 1346 1344 1343 1341 1338 1338 1339 1341 1343 1345 1350 1353 1356 1360 1361 1362 1363 1363 1362 1361 1362 1363 1364 1362 1360 1357 1352
1408 1403 1398 1392 1386 1380 1375 1370 1365 1360 1355 1351 1347 1343 1339 1337 1336 1333 1332 1332 1329 1327 1328 1329 1331 1334 1338 1342 1345 1348 1350 1352 1354 1355 1354 1353 1354 1355 1355 1353 1351 1347 1342
1402 1396 1391 1385 1379 1373 1367 1361 1357 1352 1347 1343 1338 1334 1330 1327 1326 1324 1323 1320 1319 1318 1318 1319 1321 1324 1328 1333 1336 1337 1339 1341 1344 1345 1345 1345 1345 1346 1346 1345 1342 1338 1332
1396 1390 1384 1378 1372 1365 1360 1354 1349 1344 1339 1334 1329 1326 1322 1318 1317 1315 1314 1311 1309 1309 1309 1310 1312 1314 1318 1323 1326 1327 1328 1330 1334 1335 1336 1336 1336 1337 1337 1336 1333 1330 1324
1389 1383 1376 1371 1365 1359 1352 1347 1342 1336 1331 1326 1321 1317 1314 1310 1307 1306 1305 1303 1300 1300 1300 1301 1302 1306 1310 1313 1316 1318 1319 1323 1325 1326 1326 1326 1326 1326 1326 1325 1324 1321 1316
1381 1375 1369 1363 1357 1351 1345 1340 1335 1329 1323 1318 1313 1308 1305 1303 1300 1297 1295 1294 1293 1292 1291 1293 1295 1298 1302 1305 1308 1310 1313 1316 1317 1318 1317 1317 1316 1316 1316 1315 1313 1311 1308
1373 1367 1361 1355 1349 1344 1338 1332 1327 1322 1317 1311 1306 1300 1296 1294 1292 1290 1287 1286 1285 1285 1284 1286 1288 1291 1294 1297 1300 1303 1306 1308 1309 1309 1308 1308 1308 1308 1307 1305 1303 1300 1297
1366 1359 1353 1347 1341 1336 1331 1326 1321 1315 1310 1304 1299 1294 1289 1286 1284 1281 1279 1278 1277 1277 1277 1279 1282 1284 1287 1289 1292 1295 1297 1299 1300 1300 1300 1300 1300 1299 1298 1296 1293 1290 1286
1358 1352 1346 1340 1334 1328 1323 1319 1314 1309 1305 1299 1293 1289 1284 1278 1276 1275 1272 1270 1269 1269 1270 1271 1274 1277 1279 1281 1284 1287 1289 1291 1292 1293 1293 1292 1292 1291 1289 1288 1285 1282 1278
1350 1344 1338 1332 1326 1320 1315 1309 1306 1302 1297 1293 1288 1283 1277 1274 1270 1267 1266 1264 1263 1264 1264 1264 1266 1269 1271 1274 1277 1280 1282 1283 1285 1286 1285 1285 1284 1283 1281 1280 1277 1274 1270
1344 1337 1330 1324 1319 1313 1308 1302 1296 1292 1289 1285 1280 1276 1271 1267 1263 1260 1258 1257 1257 1257 1258 1258 1260 1262 1265 1268 1271 1273 1275 1277 1278 1278 1278 1278 1277 1276 1274 1272 1269 1266 1262
1336 1330 1324 1318 1312 1307 1302 1296 1291 1285 1279 1274 1272 1268 1264 1260 1256 1253 1252 1251 1250 1251 1251 1253 1255 1257 1260 1262 1265 1267 1269 1270 1271 1271 1271 1271 1270 1269 1267 1264 1261 1259 1255
1328 1321 1316 1310 1305 1300 1295 1290 1284 1279 1273 1267 1263 1260 1257 1253 1250 1247 1246 1245 1244 1244 1246 1248 1250 1253 1255 1258 1260 1262 1263 1264 1265 1265 1265 1264 1263 1262 1259 1257 1254 1251 1249
1320 1314 1309 1304 1298 1293 1288 1283 1277 1272 1267 1261 1257 1253 1250 1246 1243 1241 1240 1239 1239 1240 1241 1243 1246 1249 1251 1253 1255 1257 1258 1258 1259 1259 1258 1257 1256 1255 1253 1250 1247 1244 1241
1312 1306 1302 1297 1292 1286 1281 1276 1270 1265 1260 1255 1251 1247 1244 1241 1238 1237 1235 1235 1235 1236 1237 1240 1242 1245 1247 1249 1251 1252 1252 1253 1253 1252 1252 1251 1250 1248 1246 1243 1240 1237 1234
1306 1300 1296 1290 1285 1279 1274 1269 1264 1259 1253 1249 1244 1241 1239 1236 1234 1233 1232 1231 1232 1233 1235 1237 1239 1241 1243 1245 1246 1247 1247 1247 1247 1246 1246 1245 1243 1241 1239 1237 1234 1230 1227
1300 1294 1289 1283 1278 1273 1268 1262 1257 1252 1247 1243 1239 1236 1234 1232 1230 1229 1229 1229 1229 1231 1232 1235 1237 1238 1240 1241 1242 1242 1242 1242 1242 1241 1240 1239 1237 1235 1233 1230 1227 1224 1220
1294 1288 1283 1277 1272 1267 1261 1256 1251 1246 1242 1238 1235 1232 1230 1228 1227 1227 1227 1227 1228 1230 1231 1233 1234 1236 1237 1238 1238 1238 1238 1237 1236 1236 1235 1233 1231 1229 1227 1223 1220 1217 1213
1288 1282 1277 1272 1266 1261 1256 1251 1246 1241 1237 1234 1231 1229 1227 1226 1225 1225 1226 1226 1227 1229 1230 1231 1233 1233 1234 1234 1234 1234 1233 1233 1232 1231 1230 1228 1226 1223 1220 1217 1214 1210 1207
1282 1277 1272 1267 1261 1256 1251 1246 1241 1237 1234 1231 1228 1226 1225 1224 1224 1224 1225 1226 1227 1228 1229 1230 1231 1231 1231 1231 1231 1230 1230 1229 1228 1227 1225 1223 1220 1217 1214 1210 1207 1203 1200